{"data":{"norad_id":68676,"intl_designator":"2026-077Q","name":"STARLINK-37312","alt_names":[],"object_type":"PAYLOAD","status":"ACTIVE","operator":null,"country":"US","launch_date":"2026-04-11","launch_site_code":"AFWTR","launch_vehicle":null,"mission":null,"orbit_class":"UNKNOWN","rcs_meters":null,"size_class":null,"mass_kg":null,"dimensions":null,"purposes":["comms"],"wikipedia_slug":null,"has_3d_model":false,"image_url":null,"decayed_at":null,"tle_current":{"epoch":"2026-09-19T09:05:55.037472Z","epoch_age_seconds":140842,"freshness":"FRESH","line1":"1 68676U 26077Q   26262.37910923  .00012294  00000+0  38251-3 0  9996","line2":"2 68676  97.2837 132.3298 0001895  89.9457 270.2003 15.33443709 24845","mean_motion":15.33443709,"eccentricity":0.0001895,"inclination_deg":97.2837,"raan_deg":132.3298,"arg_perigee_deg":89.9457,"mean_anomaly_deg":270.2003,"bstar":0.00038251,"rev_number":2484,"period_min":93.906283716085,"perigee_km":464.25013746758,"apogee_km":466.84389370948,"semimajor_km":6843.6840155885,"source":"CELESTRAK","updated_at":"2026-09-20T09:00:43.952624Z"}}}